Location: Vista Encantada
(35.1109°N, 106.5681°W)
Time: 09:24:42
(UTC+00:00)

Cosmos 2369 - Pass Details

Date: 29 October 2020
Orbit: 841 x 854 km, 71.0° (Epoch: 05 December)

Event Time Altitude Azimuth Distance (km) Brightness Sun altitude
Exits shadow 12:08:33 - 327° (NNW) 2,511 5.8 -16.2°
Reaches altitude 10° 12:08:41 10° 327° (NNW) 2,465 5.8 -16.2°
Maximum altitude 12:14:05 48° 254° (WSW) 1,089 3.9 -15.1°
Drops below altitude 10° 12:19:27 10° 181° (S) 2,447 6.2 -14.0°
Sets 12:21:57 0° 176° (S) 3,378 7.0 -13.5°
